When you browse on this site, cookies collect data to enhance your experience and personalize the content and advertising you see.
Visit our Privacy Policy to learn more. By continuing to use the site, you agree to this use of cookies and data.
EN

Hourly Weather Karyshevo

Today, 22 September, Tuesday

Time Temperature Precipitation Wind Pressure Humidity
00:00 +5°C° 0.2 mm 6 mps 741 mmHg 91%
01:00 +5°C° 0.2 mm 7 mps 741 mmHg 91%
02:00 +5°C° 0.2 mm 6 mps 741 mmHg 90%
03:00 +7°C° 0.2 mm 6 mps 741 mmHg 89%
04:00 +7°C° 0 mm 5 mps 742 mmHg 90%
05:00 +6°C° 0 mm 5 mps 742 mmHg 91%
06:00 +6°C° 0 mm 5 mps 742 mmHg 93%
07:00 +6°C° 0 mm 5 mps 743 mmHg 95%
08:00 +7°C° 0 mm 5 mps 743 mmHg 91%
09:00 +7°C° 0 mm 5 mps 744 mmHg 87%
10:00 +8°C° 0 mm 6 mps 744 mmHg 83%
11:00 +9°C° 0 mm 5 mps 744 mmHg 80%
12:00 +10°C° 0 mm 5 mps 744 mmHg 77%
13:00 +10°C° 0 mm 5 mps 744 mmHg 74%
14:00 +12°C° 0 mm 5 mps 744 mmHg 73%
15:00 +11°C° 0 mm 6 mps 744 mmHg 72%
16:00 +13°C° 0 mm 6 mps 744 mmHg 71%
17:00 +12°C° 0 mm 5 mps 744 mmHg 75%
18:00 +10°C° 0 mm 5 mps 744 mmHg 80%
19:00 +10°C° 0 mm 4 mps 743 mmHg 84%
20:00 +9°C° 0 mm 5 mps 743 mmHg 84%
21:00 +10°C° 0 mm 6 mps 743 mmHg 83%
22:00 +10°C° 0 mm 7 mps 743 mmHg 82%
23:00 +10°C° 0 mm 7 mps 742 mmHg 84%

Tomorrow, 23 September, Wednesday

Time Temperature Precipitation Wind Pressure Humidity
00:00 +10°C° 0 mm 7 mps 742 mmHg 85%
01:00 +10°C° 0 mm 7 mps 741 mmHg 86%
02:00 +10°C° 0 mm 7 mps 741 mmHg 88%
03:00 +10°C° 0 mm 7 mps 741 mmHg 89%
04:00 +10°C° 0 mm 7 mps 741 mmHg 90%
05:00 +10°C° 0 mm 7 mps 741 mmHg 90%
06:00 +10°C° 0 mm 7 mps 741 mmHg 90%
07:00 +11°C° 0 mm 8 mps 740 mmHg 89%
08:00 +11°C° 0 mm 8 mps 741 mmHg 86%
09:00 +12°C° 0 mm 8 mps 741 mmHg 82%
10:00 +12°C° 0 mm 8 mps 741 mmHg 78%
11:00 +12°C° 0.1 mm 8 mps 742 mmHg 75%
12:00 +12°C° 0.1 mm 8 mps 742 mmHg 73%
13:00 +12°C° 0.1 mm 7 mps 743 mmHg 70%
14:00 +14°C° 0 mm 7 mps 743 mmHg 66%
15:00 +14°C° 0 mm 7 mps 744 mmHg 63%
16:00 +14°C° 0 mm 7 mps 744 mmHg 59%
17:00 +13°C° 0 mm 6 mps 745 mmHg 62%
18:00 +10°C° 0 mm 5 mps 746 mmHg 65%
19:00 +10°C° 0 mm 3 mps 746 mmHg 68%
20:00 +9°C° 0 mm 3 mps 747 mmHg 69%
21:00 +8°C° 0 mm 3 mps 747 mmHg 70%
22:00 +8°C° 0 mm 3 mps 748 mmHg 72%
23:00 +7°C° 0 mm 2 mps 748 mmHg 74%

Day after tomorrow, 24 September, Thursday

Time Temperature Precipitation Wind Pressure Humidity
00:00 +7°C° 0 mm 2 mps 749 mmHg 76%
01:00 +6°C° 0 mm 2 mps 749 mmHg 78%
02:00 +7°C° 0 mm 1 mps 750 mmHg 80%
03:00 +6°C° 0 mm 1 mps 750 mmHg 82%
04:00 +6°C° 0 mm 1 mps 751 mmHg 84%
05:00 +6°C° 0 mm 1 mps 751 mmHg 84%
06:00 +6°C° 0 mm 1 mps 752 mmHg 85%
07:00 +6°C° 0 mm 1 mps 752 mmHg 85%
08:00 +8°C° 0 mm 1 mps 753 mmHg 77%
09:00 +10°C° 0 mm 1 mps 753 mmHg 70%
10:00 +10°C° 0 mm 2 mps 753 mmHg 63%
11:00 +12°C° 0 mm 2 mps 753 mmHg 59%
12:00 +13°C° 0 mm 2 mps 753 mmHg 55%
13:00 +14°C° 0 mm 2 mps 754 mmHg 51%
14:00 +14°C° 0 mm 2 mps 754 mmHg 50%
15:00 +15°C° 0 mm 1 mps 754 mmHg 50%
16:00 +15°C° 0 mm 1 mps 754 mmHg 49%
17:00 +13°C° 0 mm 1 mps 754 mmHg 54%
18:00 +12°C° 0 mm 1 mps 754 mmHg 60%
19:00 +9°C° 0 mm 0 mps 754 mmHg 65%
20:00 +10°C° 0 mm 1 mps 755 mmHg 68%
21:00 +9°C° 0 mm 1 mps 755 mmHg 70%
22:00 +9°C° 0 mm 1 mps 755 mmHg 72%
23:00 +9°C° 0 mm 1 mps 755 mmHg 74%

25 September, Friday

Time Temperature Precipitation Wind Pressure Humidity
00:00 +7°C° 0 mm 0 mps 755 mmHg 76%
01:00 +7°C° 0 mm 0 mps 755 mmHg 77%
02:00 +7°C° 0 mm 0 mps 756 mmHg 78%
03:00 +6°C° 0 mm 0 mps 756 mmHg 80%
04:00 +6°C° 0 mm 0 mps 756 mmHg 81%
05:00 +6°C° 0 mm 0 mps 756 mmHg 80%
06:00 +7°C° 0 mm 1 mps 756 mmHg 79%
07:00 +7°C° 0 mm 1 mps 756 mmHg 79%
08:00 +9°C° 0 mm 1 mps 756 mmHg 72%
09:00 +10°C° 0 mm 2 mps 757 mmHg 65%
10:00 +13°C° 0 mm 2 mps 757 mmHg 58%
11:00 +14°C° 0 mm 2 mps 757 mmHg 53%
12:00 +15°C° 0 mm 2 mps 757 mmHg 49%
13:00 +16°C° 0 mm 2 mps 757 mmHg 44%
14:00 +16°C° 0 mm 2 mps 757 mmHg 43%
15:00 +17°C° 0 mm 2 mps 756 mmHg 43%
16:00 +18°C° 0 mm 1 mps 756 mmHg 42%
17:00 +15°C° 0 mm 1 mps 756 mmHg 47%
18:00 +13°C° 0 mm 1 mps 756 mmHg 52%
19:00 +12°C° 0 mm 1 mps 756 mmHg 57%
20:00 +11°C° 0 mm 1 mps 757 mmHg 59%
21:00 +11°C° 0 mm 1 mps 757 mmHg 61%
22:00 +10°C° 0 mm 1 mps 757 mmHg 63%
23:00 +10°C° 0 mm 1 mps 757 mmHg 64%

26 September, Saturday

Time Temperature Precipitation Wind Pressure Humidity
00:00 +10°C° 0 mm 1 mps 757 mmHg 65%
01:00 +10°C° 0 mm 1 mps 757 mmHg 66%
02:00 +9°C° 0 mm 1 mps 757 mmHg 66%
03:00 +9°C° 0 mm 1 mps 757 mmHg 66%
04:00 +9°C° 0 mm 1 mps 758 mmHg 66%
05:00 +9°C° 0 mm 1 mps 758 mmHg 66%
06:00 +9°C° 0 mm 1 mps 758 mmHg 65%
07:00 +9°C° 0 mm 1 mps 758 mmHg 65%
08:00 +11°C° 0 mm 1 mps 758 mmHg 59%
09:00 +13°C° 0 mm 1 mps 758 mmHg 53%
10:00 +15°C° 0 mm 1 mps 758 mmHg 47%
11:00 +16°C° 0 mm 1 mps 758 mmHg 45%
12:00 +18°C° 0 mm 1 mps 758 mmHg 42%
13:00 +19°C° 0 mm 1 mps 758 mmHg 40%
14:00 +19°C° 0 mm 1 mps 758 mmHg 40%
15:00 +19°C° 0 mm 1 mps 758 mmHg 41%
16:00 +19°C° 0 mm 1 mps 758 mmHg 41%
17:00 +16°C° 0 mm 1 mps 758 mmHg 46%
18:00 +15°C° 0 mm 1 mps 758 mmHg 52%
19:00 +13°C° 0 mm 1 mps 758 mmHg 57%
20:00 +12°C° 0 mm 1 mps 758 mmHg 59%
21:00 +12°C° 0 mm 1 mps 758 mmHg 61%
22:00 +11°C° 0 mm 1 mps 759 mmHg 63%
23:00 +11°C° 0 mm 1 mps 759 mmHg 65%

27 September, Sunday

Time Temperature Precipitation Wind Pressure Humidity
00:00 +11°C° 0 mm 1 mps 759 mmHg 66%
01:00 +10°C° 0 mm 1 mps 759 mmHg 68%
02:00 +10°C° 0 mm 1 mps 759 mmHg 69%
03:00 +10°C° 0 mm 1 mps 759 mmHg 71%
04:00 +9°C° 0 mm 0 mps 759 mmHg 72%
05:00 +10°C° 0 mm 1 mps 759 mmHg 74%
06:00 +10°C° 0 mm 1 mps 760 mmHg 75%
07:00 +10°C° 0 mm 1 mps 760 mmHg 76%
08:00 +11°C° 0 mm 1 mps 760 mmHg 70%
09:00 +13°C° 0 mm 1 mps 760 mmHg 65%
10:00 +15°C° 0 mm 1 mps 760 mmHg 59%
11:00 +16°C° 0 mm 1 mps 760 mmHg 56%
12:00 +18°C° 0 mm 1 mps 760 mmHg 52%
13:00 +19°C° 0 mm 1 mps 760 mmHg 48%
14:00 +19°C° 0 mm 1 mps 760 mmHg 47%
15:00 +20°C° 0 mm 1 mps 760 mmHg 46%
16:00 +20°C° 0 mm 1 mps 759 mmHg 45%
17:00 +18°C° 0 mm 1 mps 759 mmHg 50%
18:00 +15°C° 0 mm 1 mps 759 mmHg 55%
19:00 +14°C° 0 mm 1 mps 759 mmHg 60%
20:00 +13°C° 0 mm 1 mps 759 mmHg 61%
21:00 +12°C° 0 mm 0 mps 759 mmHg 63%
22:00 +11°C° 0 mm 0 mps 759 mmHg 64%
23:00 +11°C° 0 mm 0 mps 759 mmHg 65%
Show more